作者hbk20491 (〥梦中情一场梦〥)
看板Baseball
标题[LIVE] KBO KT巫师 VS 乐天巨人 希克先发
时间Sun Mar 29 12:54:17 2015
2015年韩国职棒例行赛 KT巫师 VS 乐天巨人 韩国14:00 台湾时间13:00开打
金相贤(5) 李大炯(1) 金士渊(7)
\
Jim Adduci(1) 金旼河(7) 孙儿叶(3) /
\ /
\ /
\
朴基赫(8) 朴庆洙(3) /
\
文奎现(9) ◆
郑勳 (5) /
\ /
\ /
Andy Marte(4)\
Andy Sisco /
赵重槿(2)
黄载均(2) ◆
宋胜准 ◆
吴承泽(8)
\ /
\ /
\ / DH:
张盛好(6)
\◆/
崔俊蓆(4)
龙德韩(9)
姜珉镐(6)
直播频道1:NAVER SPORT:
http://ppt.cc/8eml
点中间画面 他会你下载一个观看直播的程式 安装完就可以看了 画质还不错
直播频道2:DAUM:
http://ppt.cc/MXPd
同上面 一样要下载一个观看的程式 档案都不大
希克今日成绩:3/28 IP:4.0 96球 H:5 HR:2 BB:3 K:5 失分:5 自责:5 ERA:11.25
--
※ 发信站: 批踢踢实业坊(ptt.cc), 来自: 59.127.60.131
※ 文章网址: https://webptt.com/cn.aspx?n=bbs/Baseball/M.1427604860.A.712.html
1F:推 h034826567: 今天好热闹 03/29 12:56
2F:推 Sheng98: 中午日职 x 2 + 韩职 x 1, 晚点在吴凤接鬼看中职 x 2 03/29 12:57
3F:→ Sheng98: 再 03/29 12:57
4F:推 nanako81240: 还好 记得之前有一次 中职+凌晨MLB+早上NBA 03/29 13:01
5F:→ nanako81240: 好像是王建民还是谁的时候..好几年前 03/29 13:02
6F:→ nanako81240: 总之就都有台湾人出赛 都不能睡 03/29 13:02
7F:→ nanako81240: NBA没台湾人 只是好像是很好看的赛事 03/29 13:03
9F:推 andy40074: 有一年是两天姜建铭+郭泓志+王建民先发 都拿胜投 03/29 13:05
10F:→ Sheng98: 这是在玩实况野球吗 XD 03/29 13:05
11F:→ gidapops: 看来韩国要多丢下坠变化球 好球带太小 03/29 13:07
12F:→ hbk20491: 要开始投拉 03/29 13:07
13F:→ hbk20491: 乐天巨人1棒放洋炮 03/29 13:08
14F:→ hbk20491: 147km 03/29 13:09
15F:→ woulin: 飞很远.. 03/29 13:09
16F:推 cychiang: 被扛了 03/29 13:10
17F:→ hbk20491: 被尻了 03/29 13:10
19F:推 suzhou: 今年好球带已经多放宽上下一颗好球了.... 不要再lag了 03/29 13:10
20F:→ woulin: 希克白天都会投不好 03/29 13:11
21F:推 cadana: 是黄戴军吗 希克变好瘦 03/29 13:11
22F:→ hbk20491: 对黄载均有打亚运 差点上垒 03/29 13:12
23F:推 jenchieh5: 希克的守备真的是...Y 03/29 13:12
24F:推 mimiiy: 今天好忙啊XD 03/29 13:12
25F:→ woulin: 其实可以短打,投手前滚地球 希克都处理不好 03/29 13:12
26F:→ cadana: 我才觉得脸有点面熟 03/29 13:13
27F:→ fireguard119: 记得以前年代转播的时候也有显示投手的球种 03/29 13:13
28F:推 gidapops: 148完全没被挤压到 03/29 13:13
29F:→ hbk20491: eeeeeee 03/29 13:14
30F:推 burnnie8510: 这什麽守备... 03/29 13:14
31F:→ suzhou: 昨天另一个频道转播时 还有初速/末速/转速/回转方向 03/29 13:14
32F:推 encorej77107: 场地好烂....... 03/29 13:15
33F:→ woulin: 失误...这球不难 03/29 13:15
34F:→ gidapops: 屋漏偏逢 03/29 13:15
35F:推 nanako81240: 这守备XDDDD 03/29 13:15
36F:推 mimiiy: 游击E 03/29 13:15
37F:→ suzhou: 朴基赫 不意外 03/29 13:15
38F:→ nanako81240: 不蹲又不正面接球 活该 03/29 13:15
39F:→ suzhou: 游击手是卖脸用的XDDD 03/29 13:15
40F:推 fireguard119: 韩职是不是每队都有水管的专属TV? 03/29 13:15
41F:→ hbk20491: 朴基赫乐天巨人转来的 03/29 13:16
42F:推 burnnie8510: 希克变瘦变好帅 03/29 13:16
43F:推 encorej77107: 没有记E............ 03/29 13:16
44F:推 jenchieh5: K 03/29 13:17
45F:→ encorej77107: 韩职的纪录组也太欢乐了 03/29 13:17
46F:→ mimiiy: 靠自己比较稳…… 03/29 13:17
47F:推 book8685: 回楼主 只找到这个 03/29 13:17
48F:→ hbk20491: 轮到洋炮打 03/29 13:18
49F:推 samlee1008: 场边记者 好正... 03/29 13:18
50F:→ woulin: 这麽简单处理的球 竟然没记E,难怪韩职投手防御率这麽高 03/29 13:18
51F:推 cadana: kbo是欢乐打击联盟 03/29 13:19
52F:推 encorej77107: 好球带有点扯 03/29 13:20
53F:→ encorej77107: 明明就好球都不捡 03/29 13:20
54F:→ suzhou: 转播刚刚有解释 那球有打到草皮边缘影响滚动轨迹才记H 03/29 13:20
55F:推 gidapops: 旁边吃饭的那个好像郝劭文 03/29 13:21
56F:→ hbk20491: k-zone好准 03/29 13:23
57F:→ hbk20491: 孙儿叶 e 03/29 13:23
58F:→ Xiong271: XDDDDDD 03/29 13:23
59F:推 burnnie8510: 各种有趣守备 03/29 13:23
60F:→ gidapops: 不是说台湾场地很差 结果差不多 03/29 13:23
61F:推 kevinjeng: 好欢乐的守备.... 03/29 13:23
62F:→ Xiong271: 是还在春训吗 03/29 13:23
63F:→ gidapops: 根本是新竹 03/29 13:24
64F:→ Lackland: 超鸟的系队守备已经两个了 呵呵 03/29 13:24
65F:→ jenchieh5: 欢乐... 03/29 13:24
66F:推 encorej77107: 鸟鸟的..... 03/29 13:24
67F:→ suzhou: 以目前五个开赛的场地来看 釜山这场地草皮的确很糟糕... 03/29 13:25
68F:→ hbk20491: 不过外野萤幕 超屌的 全彩 一堆数据 03/29 13:26
69F:→ fireguard119: 草皮好像之前的台南球场 03/29 13:27
71F:→ suzhou: 直接丢到红中... 宋胜准状况完全还在春训... 03/29 13:27
72F:→ minicat: 假球联盟吧 唯一超越全世界的棒球和篮球 03/29 13:28
73F:→ suzhou: 还是光州那场地好太多了 03/29 13:28
74F:→ encorej77107: 这萤幕真的好屌.... 03/29 13:28
75F:推 chunyanlin: 是说KT没带应援团到客场吗? 03/29 13:29
76F:→ gidapops: 好球带真不大 03/29 13:29
77F:推 ppacers: KBO根本就烙赛联盟 得分都用灌水的 03/29 13:29
78F:→ ppacers: 比CPBL还鸟的联盟 超欢乐 03/29 13:29
79F:→ gidapops: 根本是郭铭仁的守备 03/29 13:29
80F:→ ppacers: 常常可以不用安打得5分 03/29 13:29
81F:推 burnnie8510: 真的是系队守备 03/29 13:30
82F:→ jenchieh5: 好抖的守备 03/29 13:30
83F:→ ppacers: 韩X人一点也不意外 超爱乱搞 03/29 13:30
84F:→ encorej77107: 台湾不知哪时候才能跟进这种萤幕 03/29 13:30
85F:→ suzhou: 内野草皮真的有够烂的 滚动轨迹其实不好抓 03/29 13:30
86F:→ ppacers: 什麽巫师队 以为在打NBA吗 我还溜马队勒 03/29 13:30
87F:推 freezee: 说好的乐天女神呢 03/29 13:31
88F:→ ppacers: 乐天女神被轮奸了 03/29 13:32
89F:→ hbk20491: kia老虎目前球场的萤幕更屌 去年完工的 03/29 13:32
91F:→ suzhou: 龙德韩的打击跟郭一峰有得拼.... 03/29 13:32
92F:→ hbk20491: 这萤幕价格不知道有没有破亿 03/29 13:32
93F:→ minicat: 这也是球队数短期增加太快的通病 水准参差不齐 03/29 13:33
94F:→ ppacers: 不过他们会行销 球队多对战组合多的确有利观看人数 03/29 13:33
95F:→ ppacers: 至於水准从去年就很差了 03/29 13:34
96F:→ suzhou: 其实今天主审很明显就是左右外侧不捡 低角不捡 只捡高角 03/29 13:35
97F:→ hbk20491: 148 03/29 13:35
98F:→ hbk20491: 没捡 k-zone蛮准的 03/29 13:36
99F:推 kevinjeng: 这好球带有没有a4啊0.....0 03/29 13:36
100F:→ suzhou: 其实竞技水平还是比中职高 中职多数洋将到那用球数都暴增 03/29 13:36
101F:→ kevinjeng: 希克快疯了.... 03/29 13:37
102F:推 mimiiy: 好球带有点窄 03/29 13:37
103F:→ hbk20491: 缠斗9球bb 03/29 13:37
104F:→ suzhou: 在中职有外角海可以玩 在韩职就真的要有一定控球才能生存 03/29 13:37
105F:→ suzhou: 像是吴昇桓可以很稳定都压在两侧低角还能取得好球数 03/29 13:38
106F:推 encorej77107: 韩职这算异常好球带.... 03/29 13:38
107F:→ jenchieh5: 这球乾脆 03/29 13:39
108F:→ encorej77107: 中职这种好球带 全垒打也会满天飞... 03/29 13:39
109F:推 burnnie8510: kkk 03/29 13:39
110F:→ suzhou: 其实希克现在搭配的捕手算是很会配球的 他可以多试些内角 03/29 13:39
111F:推 freezee: 这好球带超窄 03/29 13:40
112F:→ suzhou: 希克的身高丢一些内角高球去压迫打者是会有效果的 03/29 13:40
113F:→ minicat: 打者打击水准够强阿 虽然和主审也有关 03/29 13:41
114F:推 burnnie8510: 韩国是打击联盟,好奇问一下日本呢 03/29 13:42
115F:推 losewind: 好球带这麽窄 所以才会有那麽多全垒打吗? 03/29 13:42
116F:推 mimiiy: k zone看不太懂…外角标过本垒板,内角标接球点? 03/29 13:42
117F:→ minicat: 中职近几年 还是有进步的 再加油吧 03/29 13:42
118F:→ Lackland: 这种好球带太夸张啦 03/29 13:43
119F:→ gidapops: 刚第二球在中职根本就100%好球 03/29 13:44
120F:推 davidrick: 乐天球衣不太好看... 03/29 13:44
121F:推 candy04242: 请问现在几分了 03/29 13:44
122F:推 encorej77107: 中职刚开季那几场外角海消失後 全垒打也是满天飞 03/29 13:44
123F:推 burnnie8510: 2:1 03/29 13:45
124F:→ encorej77107: 如果套用韩职这种 一定更可观 03/29 13:45
125F:→ suzhou: 不过宋胜准这局慢慢找回一点控球 低角的球路没太多偏差 03/29 13:45
126F:→ suzhou: 如果宋胜准这样控球的话 KT後面真的不好打了 03/29 13:46
127F:推 clement1031: 手机可以看naver吗 03/29 13:46
128F:→ hbk20491: 点看看 03/29 13:46
129F:→ suzhou: 可以 03/29 13:46
130F:→ hbk20491: 推文有youtube连结 03/29 13:46
131F:→ suzhou: 手机我会建议用daum比较好用 03/29 13:46
132F:→ mimiiy: 手机看水管吧,推文有连结 03/29 13:46
133F:→ suzhou: daum只要安装他的软件 就可以五场随意切换 也能换频道 03/29 13:47
134F:推 devil0915: kzone就人工标的阿 03/29 13:48
135F:→ suzhou: 宋胜准今天的直球控球较差 且球速还没出来 还可继续观察 03/29 13:49
136F:推 davidrick: 这草皮悲剧 03/29 13:49
137F:→ suzhou: Kzone哪来人工标的 = =" 那是一套系统 要架三台机器测 03/29 13:49
138F:→ suzhou: 依照转播单位的不同 有些会有初速/末速/回转圈数 03/29 13:50
139F:推 clement1031: 我手机好像无法看never哭哭 03/29 13:51
140F:推 s27c52: 可以用Naver阿! 03/29 13:51
141F:→ freezee: 我刚刚用手机可以看耶 03/29 13:51
142F:→ clement1031: 水管是可以看可是我是要看斗山的 03/29 13:51
143F:推 fireguard119: 请问Naver那个网路直播是永久的吗?还是不定时开放 03/29 13:52
144F:→ suzhou: Naver的直播是每场去开他网页就有连结 03/29 13:53
145F:推 clement1031: 楼上各位怎麽用手机看never的 03/29 13:53
146F:推 s27c52: 手机也可以看 我都用KBO的APP去点的 03/29 13:53
147F:→ suzhou: 手机一定要安装naver的cast软件喔~ 03/29 13:53
148F:→ s27c52: 可是为什麽今年Naver不能一次看4场阿(分割画面) 03/29 13:54
149F:→ s27c52: 去年还可以一次看4场的 刚刚试着要点 就不行了 03/29 13:54
150F:→ suzhou: 黄载均打的真顺手.... 03/29 13:54
151F:推 OLM: 投到红中了 03/29 13:54
152F:推 Dawei1165: 手机不用吧 我没装也可以看啊 03/29 13:55
153F:→ suzhou: Naver可以多画面 但今年开始限制海外不给多画面使用 03/29 13:56
154F:推 s27c52: 我手机有装Naver的cast软件才能看! 03/29 13:56
155F:→ s27c52: 原来如此 海外表示难过Orz 水管没了 连一次多画面都不行 03/29 13:56
156F:→ hbk20491: 控球太扯了吧 一堆超高 03/29 13:57
157F:推 neosu: 变化球几乎都控不进去 03/29 13:58
158F:推 OLM: 稀客本来控球就没有非常好 03/29 13:58
159F:→ suzhou: 希克眼前的课题是要帮球队多吃局数 不然土投没几个能用的 03/29 13:59
160F:→ gidapops: 这样也坏球 03/29 14:00
161F:→ suzhou: 希克的球只要能丢在两角 就算被打到也不一定好打 03/29 14:00
162F:→ suzhou: 暴投.... 03/29 14:01
163F:推 freezee: 看到乐天女神了!!! 03/29 14:01
164F:推 iamyamashi: 乐天女神是谁 03/29 14:02
165F:→ suzhou: 希克加油啊 後面牛棚这样操 总仔的耐心有限的 03/29 14:02
166F:推 devil0915: 好球带真他X的小 03/29 14:03
167F:→ hbk20491: 听到 lamigo的歌曲 03/29 14:03
168F:推 encorej77107: 韩职会继中洗掉吗? 我犀表示欢迎 03/29 14:03
170F:→ joyna4629: 两好球了结果HBP...... 03/29 14:05
171F:推 suzhou: 丢人啦~~丢人啦!! 03/29 14:05
172F:→ suzhou: 控球真的快炸了 03/29 14:05
173F:推 jenchieh5: ............................. 03/29 14:05
174F:→ Dawei1165: 应该不是LM的歌曲 而是LM用乐天的吧-.- 03/29 14:06
175F:→ suzhou: 是LM向乐天『致敬』的XDD 03/29 14:06
176F:推 kevinjeng: 希克签两年约今年第二年 应该不会洗吧 03/29 14:06
177F:→ joyna4629: 炸了... 03/29 14:06
178F:→ hbk20491: 爆了 03/29 14:06
179F:→ jimmy8343: LM的歌耶 03/29 14:06
180F:推 Zuleta: LM不是去完韩国就带回来了吗 03/29 14:06
181F:→ kevinjeng: 不过很明显投到要发疯了...... 03/29 14:06
182F:推 mimiiy: 不知道希克想不想回来了 03/29 14:06
183F:→ jenchieh5: 隔壁克拉帝都拿胜投了 03/29 14:06
184F:→ suzhou: 继续炸两分 03/29 14:06
185F:推 encorej77107: 我觉得能在韩职生存的去日本也会没问题...... 03/29 14:07
186F:→ Zuleta: 好辛苦 03/29 14:07
187F:推 freezee: 爆了 03/29 14:07
188F:→ hbk20491: 克拉帝去韩职投会这样吗 03/29 14:07
189F:→ suzhou: 继续这样场场炸的话 一个多月就准备被洗掉了 03/29 14:07
190F:→ encorej77107: 克拉地控球也没有很精准阿 03/29 14:07
191F:→ mimiiy: 隔壁克拉帝都翘脚啃瓜子了 03/29 14:07
192F:→ hbk20491: Rick VandenHurk 去日本投得怎样?? 03/29 14:08
193F:→ jimmy8343: 韩职投手能生存的都不错啊 03/29 14:08
194F:→ william7713: 边边角角不太捡 03/29 14:08
195F:推 Lackland: 希克:克拉帝这种好球带我投不下去 03/29 14:09
196F:→ suzhou: 如果希克有安迪的控球的话 应该会杀翻天 03/29 14:09
197F:推 chemikelvin: 我犀准备迎回我希 03/29 14:10
198F:推 kevinjeng: 直球投中间还压得了 边边角角投死自己 03/29 14:10
199F:→ suzhou: KT曹总似乎脸色不太好.... 03/29 14:10
200F:→ Zuleta: Rick VandenHurk还没先发过 03/29 14:10
201F:→ joyna4629: K掉 03/29 14:10
202F:→ Zuleta: 前年SK的胜投王Seddon去巨人第一场15K 结果整季普通也没了 03/29 14:10
203F:推 herolgg: 直球跟在台湾差不多呀!!只是这好球带好高阿 03/29 14:11
204F:→ tony123839: 烂好球带 呵 03/29 14:11
205F:推 jenchieh5: 希克好闷 03/29 14:11
206F:→ kevinjeng: 希克还是投得很累== 03/29 14:11
207F:→ Zuleta: 看他在中职KKK 这场投的有够辛苦 03/29 14:12
208F:→ Lackland: 边角角没半颗捡 只好全拼速球往中间对决 03/29 14:12
209F:→ tony123839: 希克去日本说不定还比较好一点 03/29 14:12
210F:→ suzhou: 不过希克今天控球真的不好 一些球都跟捕手位置有落差 03/29 14:12
211F:→ joyna4629: 好球带是有点小 但感觉希克今天状况也没很好 03/29 14:12
212F:推 freezee: 希克多投几场再看看吧 03/29 14:12
213F:→ herolgg: 这好球带就林A4向上移动两球的好球带 03/29 14:12
214F:推 fireguard119: 韩职啦啦队的表演站台是不是都没有安全防护啊? 03/29 14:13
215F:→ jenchieh5: 希克在台湾就直球塞进去就好 显然韩职不可能这样过关 03/29 14:13
216F:→ fireguard119: 感觉很没有安全感 03/29 14:13
217F:→ suzhou: 希克今天两好球之後的引诱球普遍没效果 除了内角高速球 03/29 14:14
218F:→ suzhou: 大部分的引诱球几乎打者都很少被骗到 03/29 14:14
219F:推 suzhou: 哈哈哈 刚刚SBS主播在讲今天好球带 "很固定"偏高 03/29 14:17
220F:→ suzhou: 低角度偏外半颗会捡 但低角度偏内则主审不爱 高角则都爱 03/29 14:19
221F:推 Hans2013: 喜欢换场影片~ 03/29 14:20
223F:→ freezee: 再来推荐乐天女神一下 03/29 14:21
224F:推 kevinjeng: 塞正中直球对方就打不好 前几局偏要边角就投垮自己了 03/29 14:22
225F:推 Zuleta: 被尻到XDDDDDDDDDD 超远 03/29 14:23
226F:→ joyna4629: 被炸裂惹 03/29 14:23
227F:推 jenchieh5: 好可怕的炮瓦... 03/29 14:24
228F:→ suzhou: 被5A洋打扛出去 03/29 14:24
229F:→ suzhou: 控球大暴走了 03/29 14:25
230F:→ jenchieh5: 韩职控球的容错率好低 03/29 14:26
231F:→ hbk20491: 连4颗4坏 03/29 14:26
232F:推 Zuleta: 他直球对KBO好像没什麽用 03/29 14:26
233F:推 theropod: 好球带比较小 03/29 14:26
234F:→ Zuleta: 好明显的四坏 03/29 14:26
235F:推 suzhou: 希克的车票已经可以开出半张了XDD 03/29 14:27
236F:→ jenchieh5: 中职四队GM可以打电话了... 03/29 14:27
237F:→ Zuleta: SB 03/29 14:27
238F:→ suzhou: 兄弟快去接洽希克吧 03/29 14:27
239F:推 kenro: 姿势都乱掉了 韩职水准比中职高很多 投得很吃力 03/29 14:27
240F:→ jenchieh5: 我看希克每球几乎都120%... 03/29 14:27
241F:推 sh235612: 兄弟有希克的话应该会很杀 03/29 14:27
242F:→ suzhou: 连跑者都欺负他了.... 03/29 14:28
243F:推 encorej77107: 赶快回我犀 然後亚职再杀KBO球队 03/29 14:28
244F:→ theropod: 好球带不一样的也可以比较?? 03/29 14:28
245F:→ Zuleta: 钓到了 03/29 14:28
246F:→ joyna4629: K了 03/29 14:28
247F:→ Zuleta: 刚那洋炮扛的超远 03/29 14:29
248F:推 chemikelvin: 4IP 5K 三振能力还是有 03/29 14:29
249F:→ suzhou: 乐天的洋打在大联盟根本就是守备组的 到亚洲却杀翻天 03/29 14:30
250F:推 homerun100: 韩职有youtub看真好 03/29 14:31
251F:→ suzhou: 希克快百球只消化四局 这会让牛棚累死... 03/29 14:31
252F:推 theropod: 如果把好球带放到跟中职一样大,希克用球数也可能下降阿 03/29 14:31
253F:→ suzhou: KT目前两个洋投都好悲剧 感觉队史第一胜要等很久 03/29 14:33
254F:推 Zuleta: 三星Navarro也是阿ww大联盟成绩水枪 结果变30轰二垒炮 03/29 14:34
255F:推 jenchieh5: 他现在就是在韩职了 讲中职的东西没什麽意义... 03/29 14:34
256F:推 kenro: 不会 希克在中职投差不多红中照样爽爽吃打者 03/29 14:34
257F:→ suzhou: 摩根昨天打的根本鬼神 不过他的重点是看格斗技XDD 03/29 14:35
258F:推 theropod: 没意义~那干嘛扯中职??? XDD 03/29 14:35
259F:→ Zuleta: 中二Morgan其实还能打啦ww就是中二ww 03/29 14:35
260F:→ suzhou: 希克下班了 牛棚要开始血汗了.... 03/29 14:35
261F:→ hbk20491: 换了喔== 03/29 14:36
262F:→ Zuleta: 换了 不到五局 03/29 14:36
263F:推 KK22440000: 一般韩职对洋投的耐心有多久啊? 03/29 14:36
264F:→ suzhou: KT菜鸟牛棚表示:钱难赚 03/29 14:36
265F:→ hbk20491: Morgan 热身赛是不是没上场 官网的热身成绩他没资料 03/29 14:37
266F:→ suzhou: 如果场场爆的话 最多两个月 03/29 14:37
267F:→ hbk20491: kt是新球队 耐心应该会比其他久一点 03/29 14:37
268F:推 encorej77107: 配合季中选秀+希克XDDDDDDDDD 03/29 14:37
269F:→ suzhou: Morgan春训一开始练习态度不好 被丢去二军练 03/29 14:37
270F:→ suzhou: Morgan:林杯随便乱练也能屌打韩国人 03/29 14:38
271F:推 suzhou: 现在上来接替的这个中继控球还不错耶 都有压在边角还满准 03/29 14:40
※ 编辑: hbk20491 (59.127.60.131), 03/29/2015 14:44:58
272F:推 s27c52: 有人在看SK跟三星这场吗?XD 刚刚有傻眼跑垒XDDD 03/29 14:49
273F:→ hbk20491: 几局的搞笑跑累垒? 03/29 14:53
274F:推 s27c52: 5下的 一出局满垒 崔炯宇打一颗很像全垒打的飞球 03/29 14:55
275F:→ s27c52: 然後被接杀(连转播单位都跟错外野手)然後一垒跑者冲过头 03/29 14:55
276F:→ s27c52: 垒包上面乱成一团XD 03/29 14:55
277F:→ hbk20491: 等找影片 03/29 14:56
279F:推 ofpurity: 有水管谁跟你还要下载阿zzz 03/29 15:01
280F:推 fireguard119: 就完全没在看前面的状况啊,搞笑哦 03/29 15:03
281F:推 suzhou: 接替希克丢的土投中继反而控球都满准的 希克控球要加油 03/29 15:06
282F:推 s27c52: 陈甲龙刚刚代打安打 真可怕 都几岁了... 03/29 15:07
283F:→ s27c52: 问题应该是出在一垒跑者朴锡珉吧? 03/29 15:07
284F:推 suzhou: 陈甲龙现在是整个联盟最老的了 03/29 15:08
285F:→ suzhou: 柳仲逸对自家那几只年轻捕手的配球一直不怎麽信任 03/29 15:09
286F:推 s27c52: 昨天李知荣表现不错呀 有安打有打点有阻杀的 03/29 15:09
287F:→ suzhou: 不然其实三星养出来的几个捕手其实并不差 到别队都是宝 03/29 15:10
288F:→ suzhou: 张盛好又受伤了 他真的这几年超级玻璃 03/29 15:11
289F:推 s27c52: 今天先发的捕手跟中外野手叫什麽名字啊? 03/29 15:11
290F:→ suzhou: KT打线已经没什麽深度了 张盛好又受伤 KT会更惨 03/29 15:12
291F:推 clement1031: 斗山队长两分炮!! 03/29 15:17